Year,Month,Day,Hour,Minute,Value (Times are PST for temperature in C)
2010,09,22,00,00,8.20
2010,09,22,00,01,8.20
2010,09,22,00,02,8.20
2010,09,22,00,03,8.20
2010,09,22,00,04,8.20
2010,09,22,00,05,8.20
2010,09,22,00,06,8.10
2010,09,22,00,07,8.10
2010,09,22,00,08,8.10
2010,09,22,00,09,8.10
2010,09,22,00,10,8.10
2010,09,22,00,11,8.00
2010,09,22,00,12,8.00
2010,09,22,00,13,8.00
2010,09,22,00,14,8.00
2010,09,22,00,15,7.90
2010,09,22,00,16,7.90
2010,09,22,00,17,7.90
2010,09,22,00,18,7.90
2010,09,22,00,19,7.90
2010,09,22,00,20,7.80
2010,09,22,00,21,7.80
2010,09,22,00,22,7.80
2010,09,22,00,23,7.80
2010,09,22,00,24,7.80
2010,09,22,00,25,7.80
2010,09,22,00,26,7.80
2010,09,22,00,27,7.80
2010,09,22,00,28,7.70
2010,09,22,00,29,7.70
2010,09,22,00,30,7.70
2010,09,22,00,31,7.70
2010,09,22,00,32,7.70
2010,09,22,00,33,7.70
2010,09,22,00,34,7.70
2010,09,22,00,35,7.70
2010,09,22,00,36,7.70
2010,09,22,00,37,7.70
2010,09,22,00,38,7.70
2010,09,22,00,39,7.70
2010,09,22,00,40,7.70
2010,09,22,00,41,7.70
2010,09,22,00,42,7.70
2010,09,22,00,43,7.70
2010,09,22,00,44,7.70
2010,09,22,00,45,7.60
2010,09,22,00,46,7.60
2010,09,22,00,47,7.60
2010,09,22,00,48,7.60
2010,09,22,00,49,7.60
2010,09,22,00,50,7.60
2010,09,22,00,51,7.60
2010,09,22,00,52,7.60
2010,09,22,00,53,7.50
2010,09,22,00,54,7.50
2010,09,22,00,55,7.50
2010,09,22,00,56,7.50
2010,09,22,00,57,7.50
2010,09,22,00,58,7.50
2010,09,22,00,59,7.50
2010,09,22,01,00,7.40
2010,09,22,01,01,7.40
2010,09,22,01,02,7.40
2010,09,22,01,03,7.40
2010,09,22,01,04,7.40
2010,09,22,01,05,7.40
2010,09,22,01,06,7.40
2010,09,22,01,07,7.40
2010,09,22,01,08,7.40
2010,09,22,01,09,7.40
2010,09,22,01,10,7.30
2010,09,22,01,11,7.30
2010,09,22,01,12,7.30
2010,09,22,01,13,7.30
2010,09,22,01,14,7.30
2010,09,22,01,15,7.30
2010,09,22,01,16,7.30
2010,09,22,01,17,7.20
2010,09,22,01,18,7.20
2010,09,22,01,19,7.20
2010,09,22,01,20,7.20
2010,09,22,01,21,7.20
2010,09,22,01,22,7.20
2010,09,22,01,23,7.20
2010,09,22,01,24,7.20
2010,09,22,01,25,7.20
2010,09,22,01,26,7.10
2010,09,22,01,27,7.10
2010,09,22,01,28,7.10
2010,09,22,01,29,7.10
2010,09,22,01,30,7.10
2010,09,22,01,31,7.10
2010,09,22,01,32,7.10
2010,09,22,01,33,7.00
2010,09,22,01,34,7.00
2010,09,22,01,35,7.00
2010,09,22,01,36,7.00
2010,09,22,01,37,7.00
2010,09,22,01,38,7.00
2010,09,22,01,39,7.00
2010,09,22,01,40,6.90
2010,09,22,01,41,6.90
2010,09,22,01,42,6.90
2010,09,22,01,43,6.90
2010,09,22,01,44,6.90
2010,09,22,01,45,6.90
2010,09,22,01,46,6.90
2010,09,22,01,47,6.90
2010,09,22,01,48,6.90
2010,09,22,01,49,6.90
2010,09,22,01,50,6.90
2010,09,22,01,51,6.90
2010,09,22,01,52,6.90
2010,09,22,01,53,6.90
2010,09,22,01,54,6.90
2010,09,22,01,55,6.90
2010,09,22,01,56,6.90
2010,09,22,01,57,6.90
2010,09,22,01,58,6.90
2010,09,22,01,59,6.90
2010,09,22,02,00,6.90
2010,09,22,02,01,6.90
2010,09,22,02,02,6.90
2010,09,22,02,03,6.90
2010,09,22,02,04,6.90
2010,09,22,02,05,6.90
2010,09,22,02,06,6.90
2010,09,22,02,07,6.90
2010,09,22,02,08,6.90
2010,09,22,02,09,6.90
2010,09,22,02,10,6.90
2010,09,22,02,11,7.00
2010,09,22,02,12,7.00
2010,09,22,02,13,7.00
2010,09,22,02,14,7.00
2010,09,22,02,15,7.00
2010,09,22,02,16,7.00
2010,09,22,02,17,7.00
2010,09,22,02,18,7.00
2010,09,22,02,19,7.00
2010,09,22,02,20,7.00
2010,09,22,02,21,7.00
2010,09,22,02,22,7.00
2010,09,22,02,23,7.00
2010,09,22,02,24,7.10
2010,09,22,02,25,7.10
2010,09,22,02,26,7.10
2010,09,22,02,27,7.10
2010,09,22,02,28,7.10
2010,09,22,02,29,7.10
2010,09,22,02,30,7.10
2010,09,22,02,31,7.10
2010,09,22,02,32,7.10
2010,09,22,02,33,7.10
2010,09,22,02,34,7.10
2010,09,22,02,35,7.10
2010,09,22,02,36,7.20
2010,09,22,02,37,7.20
2010,09,22,02,38,7.20
2010,09,22,02,39,7.20
2010,09,22,02,40,7.20
2010,09,22,02,41,7.20
2010,09,22,02,42,7.20
2010,09,22,02,43,7.20
2010,09,22,02,44,7.20
2010,09,22,02,45,7.20
2010,09,22,02,46,7.20
2010,09,22,02,47,7.20
2010,09,22,02,48,7.20
2010,09,22,02,49,7.20
2010,09,22,02,50,7.20
2010,09,22,02,51,7.30
2010,09,22,02,52,7.30
2010,09,22,02,53,7.30
2010,09,22,02,54,7.30
2010,09,22,02,55,7.30
2010,09,22,02,56,7.30
2010,09,22,02,57,7.30
2010,09,22,02,58,7.40
2010,09,22,02,59,7.40
2010,09,22,03,00,7.40
2010,09,22,03,01,7.40
2010,09,22,03,02,7.40
2010,09,22,03,06,7.50
2010,09,22,03,07,7.50
2010,09,22,03,08,7.50
2010,09,22,03,09,7.50
2010,09,22,03,10,7.50
2010,09,22,03,11,7.50
2010,09,22,03,12,7.50
2010,09,22,03,13,7.50
2010,09,22,03,14,7.50
2010,09,22,03,15,7.50
2010,09,22,03,16,7.50
2010,09,22,03,17,7.40
2010,09,22,03,18,7.40
2010,09,22,03,19,7.40
2010,09,22,03,20,7.40
2010,09,22,03,21,7.40
2010,09,22,03,22,7.40
2010,09,22,03,23,7.40
2010,09,22,03,24,7.40
2010,09,22,03,25,7.40
2010,09,22,03,26,7.40
2010,09,22,03,27,7.40
2010,09,22,03,28,7.40
2010,09,22,03,29,7.50
2010,09,22,03,30,7.50
2010,09,22,03,31,7.50
2010,09,22,03,32,7.50
2010,09,22,03,33,7.50
2010,09,22,03,34,7.50
2010,09,22,03,35,7.50
2010,09,22,03,36,7.50
2010,09,22,03,37,7.50
2010,09,22,03,38,7.50
2010,09,22,03,39,7.50
2010,09,22,03,40,7.50
2010,09,22,03,41,7.50
2010,09,22,03,42,7.50
2010,09,22,03,43,7.50
2010,09,22,03,44,7.50
2010,09,22,03,45,7.50
2010,09,22,03,46,7.50
2010,09,22,03,47,7.60
2010,09,22,03,48,7.60
2010,09,22,03,49,7.60
2010,09,22,03,50,7.60
2010,09,22,03,51,7.60
2010,09,22,03,52,7.60
2010,09,22,03,53,7.60
2010,09,22,03,54,7.60
2010,09,22,03,55,7.60
2010,09,22,03,56,7.60
2010,09,22,03,57,7.60
2010,09,22,03,58,7.60
2010,09,22,03,59,7.60
2010,09,22,04,00,7.60
2010,09,22,04,01,7.60
2010,09,22,04,02,7.70
2010,09,22,04,03,7.70
2010,09,22,04,04,7.70
2010,09,22,04,05,7.70
2010,09,22,04,06,7.70
2010,09,22,04,07,7.70
2010,09,22,04,08,7.70
2010,09,22,04,09,7.70
2010,09,22,04,10,7.70
2010,09,22,04,11,7.70
2010,09,22,04,12,7.70
2010,09,22,04,13,7.80
2010,09,22,04,14,7.80
2010,09,22,04,15,7.80
2010,09,22,04,16,7.80
2010,09,22,04,17,7.80
2010,09,22,04,18,7.80
2010,09,22,04,19,7.80
2010,09,22,04,20,7.80
2010,09,22,04,21,7.80
2010,09,22,04,22,7.80
2010,09,22,04,23,7.80
2010,09,22,04,24,7.90
2010,09,22,04,25,7.90
2010,09,22,04,26,7.90
2010,09,22,04,27,7.90
2010,09,22,04,28,7.90
2010,09,22,04,29,7.90
2010,09,22,04,30,7.90
2010,09,22,04,31,7.90
2010,09,22,04,32,8.00
2010,09,22,04,33,8.00
2010,09,22,04,34,8.00
2010,09,22,04,35,8.00
2010,09,22,04,36,8.00
2010,09,22,04,37,8.10
2010,09,22,04,38,8.10
2010,09,22,04,39,8.10
2010,09,22,04,40,8.10
2010,09,22,04,41,8.10
2010,09,22,04,42,8.10
2010,09,22,04,43,8.20
2010,09,22,04,44,8.20
2010,09,22,04,45,8.20
2010,09,22,04,46,8.20
2010,09,22,04,47,8.20
2010,09,22,04,48,8.20
2010,09,22,04,49,8.20
2010,09,22,04,50,8.20
2010,09,22,04,51,8.30
2010,09,22,04,52,8.30
2010,09,22,04,53,8.30
2010,09,22,04,54,8.30
2010,09,22,04,55,8.30
2010,09,22,04,56,8.30
2010,09,22,04,57,8.30
2010,09,22,04,58,8.30
2010,09,22,04,59,8.30
2010,09,22,05,00,8.30
2010,09,22,05,01,8.30
2010,09,22,05,02,8.40
2010,09,22,05,03,8.40
2010,09,22,05,04,8.40
2010,09,22,05,05,8.40
2010,09,22,05,06,8.40
2010,09,22,05,07,8.40
2010,09,22,05,08,8.40
2010,09,22,05,09,8.40
2010,09,22,05,10,8.40
2010,09,22,05,11,8.40
2010,09,22,05,12,8.40
2010,09,22,05,13,8.50
2010,09,22,05,14,8.50
2010,09,22,05,15,8.50
2010,09,22,05,16,8.50
2010,09,22,05,17,8.50
2010,09,22,05,18,8.50
2010,09,22,05,19,8.50
2010,09,22,05,20,8.60
2010,09,22,05,21,8.60
2010,09,22,05,22,8.60
2010,09,22,05,23,8.60
2010,09,22,05,24,8.60
2010,09,22,05,25,8.60
2010,09,22,05,26,8.60
2010,09,22,05,27,8.60
2010,09,22,05,28,8.60
2010,09,22,05,29,8.60
2010,09,22,05,30,8.60
2010,09,22,05,31,8.60
2010,09,22,05,32,8.60
2010,09,22,05,33,8.60
2010,09,22,05,34,8.60
2010,09,22,05,35,8.60
2010,09,22,05,36,8.60
2010,09,22,05,37,8.60
2010,09,22,05,38,8.60
2010,09,22,05,39,8.60
2010,09,22,05,40,8.60
2010,09,22,05,41,8.60
2010,09,22,05,42,8.60
2010,09,22,05,43,8.60
2010,09,22,05,44,8.60
2010,09,22,05,45,8.60
2010,09,22,05,46,8.60
2010,09,22,05,47,8.60
2010,09,22,05,48,8.70
2010,09,22,05,49,8.70
2010,09,22,05,50,8.70
2010,09,22,05,51,8.70
2010,09,22,05,52,8.70
2010,09,22,05,53,8.70
2010,09,22,05,54,8.70
2010,09,22,05,55,8.70
2010,09,22,05,56,8.70
2010,09,22,05,57,8.70
2010,09,22,05,58,8.70
2010,09,22,05,59,8.70
2010,09,22,06,00,8.70
2010,09,22,06,01,8.70
2010,09,22,06,02,8.70
2010,09,22,06,03,8.70
2010,09,22,06,04,8.70
2010,09,22,06,05,8.70
2010,09,22,06,06,8.70
2010,09,22,06,07,8.70
2010,09,22,06,08,8.70
2010,09,22,06,09,8.70
2010,09,22,06,10,8.70
2010,09,22,06,11,8.70
2010,09,22,06,12,8.70
2010,09,22,06,13,8.70
2010,09,22,06,14,8.70
2010,09,22,06,15,8.70
2010,09,22,06,16,8.70
2010,09,22,06,17,8.70
2010,09,22,06,18,8.70
2010,09,22,06,19,8.70
2010,09,22,06,20,8.70
2010,09,22,06,21,8.70
2010,09,22,06,22,8.70
2010,09,22,06,23,8.70
2010,09,22,06,24,8.70
2010,09,22,06,25,8.70
2010,09,22,06,26,8.70
2010,09,22,06,27,8.70
2010,09,22,06,28,8.70
2010,09,22,06,29,8.70
2010,09,22,06,30,8.70
2010,09,22,06,31,8.70
2010,09,22,06,32,8.70
2010,09,22,06,33,8.70
2010,09,22,06,34,8.70
2010,09,22,06,35,8.70
2010,09,22,06,36,8.70
2010,09,22,06,37,8.70
2010,09,22,06,38,8.70
2010,09,22,06,39,8.70
2010,09,22,06,40,8.70
2010,09,22,06,41,8.70
2010,09,22,06,42,8.70
2010,09,22,06,43,8.70
2010,09,22,06,44,8.70
2010,09,22,06,45,8.70
2010,09,22,06,46,8.70
2010,09,22,06,47,8.80
2010,09,22,06,48,8.70
2010,09,22,06,49,8.70
2010,09,22,06,50,8.80
2010,09,22,06,51,8.80
2010,09,22,06,52,8.80
2010,09,22,06,53,8.80
2010,09,22,06,54,8.80
2010,09,22,06,55,8.80
2010,09,22,06,56,8.80
2010,09,22,06,57,8.80
2010,09,22,06,58,8.80
2010,09,22,06,59,8.80
2010,09,22,07,00,8.70
2010,09,22,07,01,8.70
2010,09,22,07,02,8.70
2010,09,22,07,03,8.70
2010,09,22,07,04,8.70
2010,09,22,07,05,8.70
2010,09,22,07,06,8.70
2010,09,22,07,07,8.70
2010,09,22,07,08,8.70
2010,09,22,07,09,8.70
2010,09,22,07,10,8.70
2010,09,22,07,11,8.70
2010,09,22,07,12,8.70
2010,09,22,07,13,8.70
2010,09,22,07,14,8.70
2010,09,22,07,15,8.70
2010,09,22,07,16,8.70
2010,09,22,07,17,8.70
2010,09,22,07,18,8.70
2010,09,22,07,19,8.70
2010,09,22,07,20,8.70
2010,09,22,07,21,8.70
2010,09,22,07,22,8.70
2010,09,22,07,23,8.70
2010,09,22,07,24,8.70
2010,09,22,07,25,8.70
2010,09,22,07,26,8.70
2010,09,22,07,27,8.70
2010,09,22,07,28,8.70
2010,09,22,07,29,8.70
2010,09,22,07,30,8.70
2010,09,22,07,31,8.70
2010,09,22,07,32,8.70
2010,09,22,07,33,8.70
2010,09,22,07,34,8.70
2010,09,22,07,35,8.70
2010,09,22,07,36,8.70
2010,09,22,07,37,8.70
2010,09,22,07,38,8.70
2010,09,22,07,39,8.70
2010,09,22,07,40,8.70
2010,09,22,07,41,8.70
2010,09,22,07,42,8.70
2010,09,22,07,43,8.70
2010,09,22,07,44,8.70
2010,09,22,07,45,8.70
2010,09,22,07,46,8.70
2010,09,22,07,47,8.70
2010,09,22,07,48,8.70
2010,09,22,07,49,8.70
2010,09,22,07,50,8.70
2010,09,22,07,51,8.70
2010,09,22,07,52,8.70
2010,09,22,07,53,8.70
2010,09,22,07,54,8.70
2010,09,22,07,55,8.70
2010,09,22,07,56,8.70
2010,09,22,07,57,8.70
2010,09,22,07,58,8.70
2010,09,22,07,59,8.70
2010,09,22,08,00,8.70
2010,09,22,08,01,8.70
2010,09,22,08,02,8.70
2010,09,22,08,03,8.70
2010,09,22,08,04,8.70
2010,09,22,08,05,8.70
2010,09,22,08,06,8.70
2010,09,22,08,07,8.70
2010,09,22,08,08,8.70
2010,09,22,08,09,8.70
2010,09,22,08,10,8.70
2010,09,22,08,11,8.70
2010,09,22,08,12,8.70
2010,09,22,08,13,8.70
2010,09,22,08,14,8.70
2010,09,22,08,15,8.70
2010,09,22,08,16,8.70
2010,09,22,08,17,8.60
2010,09,22,08,18,8.60
2010,09,22,08,19,8.60
2010,09,22,08,20,8.60
2010,09,22,08,21,8.60
2010,09,22,08,22,8.60
2010,09,22,08,23,8.50
2010,09,22,08,24,8.50
2010,09,22,08,25,8.50
2010,09,22,08,26,8.50
2010,09,22,08,27,8.50
2010,09,22,08,28,8.40
2010,09,22,08,29,8.40
2010,09,22,08,30,8.40
2010,09,22,08,31,8.40
2010,09,22,08,32,8.40
2010,09,22,08,33,8.40
2010,09,22,08,34,8.40
2010,09,22,08,35,8.50
2010,09,22,08,36,8.50
2010,09,22,08,37,8.50
2010,09,22,08,38,8.50
2010,09,22,08,39,8.50
2010,09,22,08,40,8.60
2010,09,22,08,41,8.60
2010,09,22,08,42,8.60
2010,09,22,08,43,8.60
2010,09,22,08,44,8.60
2010,09,22,08,45,8.60
2010,09,22,08,46,8.60
2010,09,22,08,47,8.60
2010,09,22,08,48,8.60
2010,09,22,08,49,8.60
2010,09,22,08,50,8.60
2010,09,22,08,51,8.70
2010,09,22,08,52,8.70
2010,09,22,08,53,8.70
2010,09,22,08,54,8.70
2010,09,22,08,55,8.70
2010,09,22,08,56,8.70
2010,09,22,08,57,8.70
2010,09,22,08,58,8.80
2010,09,22,08,59,8.80
2010,09,22,09,00,8.80
2010,09,22,09,01,8.80
2010,09,22,09,02,8.80
2010,09,22,09,03,8.90
2010,09,22,09,04,8.90
2010,09,22,09,05,8.90
2010,09,22,09,06,8.90
2010,09,22,09,07,8.90
2010,09,22,09,08,9.00
2010,09,22,09,09,9.00
2010,09,22,09,10,9.00
2010,09,22,09,11,9.00
2010,09,22,09,12,9.10
2010,09,22,09,13,9.10
2010,09,22,09,14,9.10
2010,09,22,09,15,9.10
2010,09,22,09,16,9.10
2010,09,22,09,17,9.10
2010,09,22,09,18,9.10
2010,09,22,09,19,9.10
2010,09,22,09,20,9.20
2010,09,22,09,21,9.20
2010,09,22,09,22,9.20
2010,09,22,09,23,9.20
2010,09,22,09,24,9.20
2010,09,22,09,25,9.20
2010,09,22,09,26,9.20
2010,09,22,09,27,9.20
2010,09,22,09,28,9.20
2010,09,22,09,29,9.30
2010,09,22,09,30,9.30
2010,09,22,09,31,9.30
2010,09,22,09,32,9.30
2010,09,22,09,33,9.40
2010,09,22,09,34,9.40
2010,09,22,09,35,9.40
2010,09,22,09,36,9.40
2010,09,22,09,37,9.40
2010,09,22,09,38,9.40
2010,09,22,09,39,9.50
2010,09,22,09,40,9.50
2010,09,22,09,41,9.50
2010,09,22,09,42,9.50
2010,09,22,09,43,9.50
2010,09,22,09,44,9.50
2010,09,22,09,45,9.50
2010,09,22,09,46,9.50
2010,09,22,09,47,9.50
2010,09,22,09,48,9.50
2010,09,22,09,49,9.60
2010,09,22,09,50,9.60
2010,09,22,09,51,9.60
2010,09,22,09,52,9.60
2010,09,22,09,53,9.60
2010,09,22,09,54,9.60
2010,09,22,09,55,9.60
2010,09,22,09,56,9.70
2010,09,22,09,57,9.70
2010,09,22,09,58,9.70
2010,09,22,09,59,9.70
2010,09,22,10,00,9.80
2010,09,22,10,01,9.80
2010,09,22,10,02,9.80
2010,09,22,10,03,9.80
2010,09,22,10,04,9.80
2010,09,22,10,05,9.80
2010,09,22,10,06,9.80
2010,09,22,10,07,9.80
2010,09,22,10,08,9.80
2010,09,22,10,09,9.80
2010,09,22,10,10,9.80
2010,09,22,10,11,9.80
2010,09,22,10,12,9.80
2010,09,22,10,13,9.80
2010,09,22,10,14,9.80
2010,09,22,10,15,9.80
2010,09,22,10,16,9.80
2010,09,22,10,17,9.80
2010,09,22,10,18,9.80
2010,09,22,10,19,9.80
2010,09,22,10,20,9.80
2010,09,22,10,21,9.90
2010,09,22,10,22,9.90
2010,09,22,10,23,9.90
2010,09,22,10,24,10.00
2010,09,22,10,25,10.00
2010,09,22,10,26,10.00
2010,09,22,10,27,10.00
2010,09,22,10,28,10.00
2010,09,22,10,29,10.00
2010,09,22,10,30,10.00
2010,09,22,10,31,10.00
2010,09,22,10,32,10.00
2010,09,22,10,33,10.00
2010,09,22,10,34,10.10
2010,09,22,10,35,10.10
2010,09,22,10,36,10.10
2010,09,22,10,37,10.10
2010,09,22,10,38,10.10
2010,09,22,10,39,10.10
2010,09,22,10,40,10.10
2010,09,22,10,41,10.10
2010,09,22,10,42,10.20
2010,09,22,10,43,10.20
2010,09,22,10,44,10.20
2010,09,22,10,45,10.20
2010,09,22,10,46,10.20
2010,09,22,10,47,10.30
2010,09,22,10,48,10.30
2010,09,22,10,49,10.30
2010,09,22,10,50,10.30
2010,09,22,10,51,10.30
2010,09,22,10,52,10.40
2010,09,22,10,53,10.40
2010,09,22,10,54,10.40
2010,09,22,10,55,10.40
2010,09,22,10,56,10.40
2010,09,22,10,57,10.30
2010,09,22,10,58,10.30
2010,09,22,10,59,10.30
2010,09,22,11,00,10.30
2010,09,22,11,01,10.30
2010,09,22,11,02,10.30
2010,09,22,11,03,10.40
2010,09,22,11,04,10.40
2010,09,22,11,05,10.40
2010,09,22,11,06,10.40
2010,09,22,11,07,10.40
2010,09,22,11,08,10.50
2010,09,22,11,09,10.50
2010,09,22,11,10,10.60
2010,09,22,11,11,10.60
2010,09,22,11,12,10.60
2010,09,22,11,13,10.60
2010,09,22,11,14,10.60
2010,09,22,11,15,10.60
2010,09,22,11,16,10.60
2010,09,22,11,17,10.60
2010,09,22,11,18,10.70
2010,09,22,11,19,10.70
2010,09,22,11,20,10.70
2010,09,22,11,21,10.70
2010,09,22,11,22,10.70
2010,09,22,11,23,10.70
2010,09,22,11,24,10.70
2010,09,22,11,25,10.70
2010,09,22,11,26,10.80
2010,09,22,11,27,10.80
2010,09,22,11,28,10.80
2010,09,22,11,29,10.90
2010,09,22,11,30,10.90
2010,09,22,11,31,11.00
2010,09,22,11,32,11.00
2010,09,22,11,33,11.10
2010,09,22,11,34,11.10
2010,09,22,11,35,11.00
2010,09,22,11,36,11.00
2010,09,22,11,37,11.00
2010,09,22,11,38,11.00
2010,09,22,11,39,11.00
2010,09,22,11,40,11.10
2010,09,22,11,41,11.10
2010,09,22,11,42,11.10
2010,09,22,11,43,11.10
2010,09,22,11,44,11.10
2010,09,22,11,45,11.20
2010,09,22,11,46,11.20
2010,09,22,11,47,11.30
2010,09,22,11,48,11.30
2010,09,22,11,49,11.40
2010,09,22,11,50,11.50
2010,09,22,11,51,11.50
2010,09,22,11,52,11.60
2010,09,22,11,53,11.70
2010,09,22,11,54,11.70
2010,09,22,11,55,11.80
2010,09,22,11,56,11.90
2010,09,22,11,57,11.90
2010,09,22,11,58,12.00
2010,09,22,11,59,12.10
2010,09,22,12,00,12.10
2010,09,22,12,01,12.20
2010,09,22,12,02,12.20
2010,09,22,12,03,12.20
2010,09,22,12,04,12.20
2010,09,22,12,05,12.30
2010,09,22,12,06,12.30
2010,09,22,12,07,12.40
2010,09,22,12,08,12.50
2010,09,22,12,09,12.50
2010,09,22,12,10,12.60
2010,09,22,12,11,12.60
2010,09,22,12,12,12.60
2010,09,22,12,13,12.60
2010,09,22,12,14,12.70
2010,09,22,12,15,12.80
2010,09,22,12,16,12.90
2010,09,22,12,17,12.90
2010,09,22,12,18,12.90
2010,09,22,12,19,12.80
2010,09,22,12,20,12.80
2010,09,22,12,21,12.80
2010,09,22,12,22,12.80
2010,09,22,12,23,12.80
2010,09,22,12,24,12.80
2010,09,22,12,25,12.80
2010,09,22,12,26,12.90
2010,09,22,12,27,12.90
2010,09,22,12,28,12.90
2010,09,22,12,29,12.90
2010,09,22,12,30,12.90
2010,09,22,12,31,12.90
2010,09,22,12,32,12.90
2010,09,22,12,33,13.00
2010,09,22,12,34,13.00
2010,09,22,12,35,13.00
2010,09,22,12,36,13.10
2010,09,22,12,37,13.10
2010,09,22,12,38,13.10
2010,09,22,12,39,13.10
2010,09,22,12,40,13.10
2010,09,22,12,41,13.10
2010,09,22,12,42,13.20
2010,09,22,12,43,13.20
2010,09,22,12,44,13.30
2010,09,22,12,45,13.30
2010,09,22,12,46,13.40
2010,09,22,12,47,13.40
2010,09,22,12,48,13.50
2010,09,22,12,49,13.50
2010,09,22,12,50,13.60
2010,09,22,12,51,13.70
2010,09,22,12,52,13.70
2010,09,22,12,53,13.80
2010,09,22,12,54,13.90
2010,09,22,12,55,14.00
2010,09,22,12,56,14.10
2010,09,22,12,57,14.20
2010,09,22,12,58,14.30
2010,09,22,12,59,14.40
2010,09,22,13,00,14.50
2010,09,22,13,01,14.60
2010,09,22,13,02,14.60
2010,09,22,13,03,14.70
2010,09,22,13,04,14.70
2010,09,22,13,05,14.70
2010,09,22,13,06,14.70
2010,09,22,13,07,14.70
2010,09,22,13,08,14.70
2010,09,22,13,09,14.80
2010,09,22,13,10,14.80
2010,09,22,13,11,14.90
2010,09,22,13,12,15.00
2010,09,22,13,13,15.10
2010,09,22,13,14,15.20
2010,09,22,13,15,15.20
2010,09,22,13,16,15.20
2010,09,22,13,17,15.30
2010,09,22,13,18,15.30
2010,09,22,13,19,15.30
2010,09,22,13,20,15.30
2010,09,22,13,21,15.30
2010,09,22,13,22,15.30
2010,09,22,13,23,15.40
2010,09,22,13,24,15.40
2010,09,22,13,25,15.50
2010,09,22,13,26,15.50
2010,09,22,13,27,15.60
2010,09,22,13,28,15.70
2010,09,22,13,29,15.70
2010,09,22,13,30,15.80
2010,09,22,13,31,15.80
2010,09,22,13,32,15.90
2010,09,22,13,33,15.90
2010,09,22,13,34,16.00
2010,09,22,13,35,16.10
2010,09,22,13,36,16.20
2010,09,22,13,37,16.30
2010,09,22,13,38,16.40
2010,09,22,13,39,16.40
2010,09,22,13,40,16.50
2010,09,22,13,41,16.50
2010,09,22,13,42,16.50
2010,09,22,13,43,16.50
2010,09,22,13,44,16.50
2010,09,22,13,45,16.50
2010,09,22,13,46,16.60
2010,09,22,13,47,16.60
2010,09,22,13,48,16.70
2010,09,22,13,49,16.70
2010,09,22,13,50,16.80
2010,09,22,13,51,16.80
2010,09,22,13,52,16.90
2010,09,22,13,53,16.90
2010,09,22,13,54,16.90
2010,09,22,13,55,16.90
2010,09,22,13,56,16.90
2010,09,22,13,57,17.00
2010,09,22,13,58,17.00
2010,09,22,13,59,17.20
2010,09,22,14,00,17.30
2010,09,22,14,01,17.30
2010,09,22,14,02,17.40
2010,09,22,14,03,17.50
2010,09,22,14,04,17.50
2010,09,22,14,05,17.70
2010,09,22,14,06,17.70
2010,09,22,14,07,17.80
2010,09,22,14,08,17.90
2010,09,22,14,09,17.90
2010,09,22,14,10,17.90
2010,09,22,14,11,17.90
2010,09,22,14,12,17.90
2010,09,22,14,13,18.00
2010,09,22,14,14,18.10
2010,09,22,14,15,18.20
2010,09,22,14,16,18.20
2010,09,22,14,17,18.20
2010,09,22,14,18,18.10
2010,09,22,14,19,18.10
2010,09,22,14,20,18.10
2010,09,22,14,21,18.10
2010,09,22,14,22,18.10
2010,09,22,14,23,18.10
2010,09,22,14,24,18.10
2010,09,22,14,25,18.20
2010,09,22,14,26,18.30
2010,09,22,14,27,18.30
2010,09,22,14,28,18.30
2010,09,22,14,29,18.30
2010,09,22,14,30,18.30
2010,09,22,14,31,18.30
2010,09,22,14,32,18.40
2010,09,22,14,33,18.40
2010,09,22,14,34,18.40
2010,09,22,14,35,18.40
2010,09,22,14,36,18.40
2010,09,22,14,37,18.40
2010,09,22,14,38,18.40
2010,09,22,14,39,18.50
2010,09,22,14,40,18.50
2010,09,22,14,41,18.60
2010,09,22,14,42,18.70
2010,09,22,14,43,18.70
2010,09,22,14,44,18.70
2010,09,22,14,45,18.70
2010,09,22,14,46,18.80
2010,09,22,14,47,18.80
2010,09,22,14,48,18.80
2010,09,22,14,49,18.90
2010,09,22,14,50,19.00
2010,09,22,14,51,19.10
2010,09,22,14,52,19.30
2010,09,22,14,53,19.40
2010,09,22,14,54,19.50
2010,09,22,14,55,19.50
2010,09,22,14,56,19.50
2010,09,22,14,57,19.50
2010,09,22,14,58,19.50
2010,09,22,14,59,19.50
2010,09,22,15,00,19.50
2010,09,22,15,01,19.50
2010,09,22,15,02,19.40
2010,09,22,15,03,19.40
2010,09,22,15,04,19.40
2010,09,22,15,05,19.40
2010,09,22,15,06,19.40
2010,09,22,15,07,19.40
2010,09,22,15,08,19.40
2010,09,22,15,09,19.30
2010,09,22,15,10,19.30
2010,09,22,15,11,19.40
2010,09,22,15,12,19.40
2010,09,22,15,13,19.40
2010,09,22,15,14,19.40
2010,09,22,15,15,19.40
2010,09,22,15,16,19.40
2010,09,22,15,17,19.40
2010,09,22,15,18,19.40
2010,09,22,15,19,19.30
2010,09,22,15,20,19.30
2010,09,22,15,21,19.20
2010,09,22,15,22,19.20
2010,09,22,15,23,19.20
2010,09,22,15,24,19.20
2010,09,22,15,25,19.20
2010,09,22,15,26,19.30
2010,09,22,15,27,19.40
2010,09,22,15,28,19.40
2010,09,22,15,29,19.40
2010,09,22,15,30,19.50
2010,09,22,15,31,19.40
2010,09,22,15,32,19.50
2010,09,22,15,33,19.60
2010,09,22,15,34,19.60
2010,09,22,15,35,19.70
2010,09,22,15,36,19.70
2010,09,22,15,37,19.70
2010,09,22,15,38,19.70
2010,09,22,15,39,19.70
2010,09,22,15,40,19.70
2010,09,22,15,41,19.70
2010,09,22,15,42,19.70
2010,09,22,15,43,19.80
2010,09,22,15,44,19.70
2010,09,22,15,45,19.70
2010,09,22,15,46,19.70
2010,09,22,15,47,19.60
2010,09,22,15,48,19.60
2010,09,22,15,49,19.50
2010,09,22,15,50,19.50
2010,09,22,15,51,19.40
2010,09,22,15,52,19.40
2010,09,22,15,53,19.40
2010,09,22,15,54,19.30
2010,09,22,15,55,19.30
2010,09,22,15,56,19.30
2010,09,22,15,57,19.30
2010,09,22,15,58,19.30
2010,09,22,15,59,19.30
2010,09,22,16,00,19.30
2010,09,22,16,01,19.30
2010,09,22,16,02,19.30
2010,09,22,16,03,19.30
2010,09,22,16,04,19.30
2010,09,22,16,05,19.40
2010,09,22,16,06,19.50
2010,09,22,16,07,19.50
2010,09,22,16,08,19.60
2010,09,22,16,09,19.70
2010,09,22,16,10,19.70
2010,09,22,16,11,19.80
2010,09,22,16,12,19.90
2010,09,22,16,13,19.90
2010,09,22,16,14,19.90
2010,09,22,16,15,19.90
2010,09,22,16,16,19.90
2010,09,22,16,17,19.90
2010,09,22,16,18,19.80
2010,09,22,16,19,19.70
2010,09,22,16,20,19.70
2010,09,22,16,21,19.60
2010,09,22,16,22,19.60
2010,09,22,16,23,19.60
2010,09,22,16,24,19.60
2010,09,22,16,25,19.70
2010,09,22,16,26,19.80
2010,09,22,16,27,19.80
2010,09,22,16,28,19.80
2010,09,22,16,29,19.80
2010,09,22,16,30,19.90
2010,09,22,16,31,19.90
2010,09,22,16,32,19.90
2010,09,22,16,33,20.00
2010,09,22,16,34,20.00
2010,09,22,16,35,20.10
2010,09,22,16,36,20.10
2010,09,22,16,37,20.10
2010,09,22,16,38,20.10
2010,09,22,16,39,20.10
2010,09,22,16,40,20.00
2010,09,22,16,41,20.00
2010,09,22,16,42,20.10
2010,09,22,16,43,20.10
2010,09,22,16,44,20.10
2010,09,22,16,45,20.20
2010,09,22,16,46,20.30
2010,09,22,16,47,20.30
2010,09,22,16,48,20.40
2010,09,22,16,49,20.40
2010,09,22,16,50,20.50
2010,09,22,16,51,20.60
2010,09,22,16,52,20.60
2010,09,22,16,53,20.50
2010,09,22,16,54,20.40
2010,09,22,16,55,20.50
2010,09,22,16,56,20.50
2010,09,22,16,57,20.40
2010,09,22,16,58,20.40
2010,09,22,16,59,20.30
2010,09,22,17,00,20.30
2010,09,22,17,01,20.30
2010,09,22,17,02,20.30
2010,09,22,17,03,20.40
2010,09,22,17,04,20.40
2010,09,22,17,05,20.30
2010,09,22,17,06,20.30
2010,09,22,17,07,20.30
2010,09,22,17,08,20.30
2010,09,22,17,09,20.30
2010,09,22,17,10,20.20
2010,09,22,17,11,20.10
2010,09,22,17,12,20.10
2010,09,22,17,13,20.10
2010,09,22,17,14,20.10
2010,09,22,17,15,20.10
2010,09,22,17,16,20.10
2010,09,22,17,17,20.20
2010,09,22,17,18,20.20
2010,09,22,17,19,20.20
2010,09,22,17,20,20.30
2010,09,22,17,21,20.20
2010,09,22,17,22,20.20
2010,09,22,17,23,20.20
2010,09,22,17,24,20.20
2010,09,22,17,25,20.20
2010,09,22,17,26,20.20
2010,09,22,17,27,20.10
2010,09,22,17,28,20.10
2010,09,22,17,29,20.10
2010,09,22,17,30,20.20
2010,09,22,17,31,20.20
2010,09,22,17,32,20.20
2010,09,22,17,33,20.10
2010,09,22,17,34,20.10
2010,09,22,17,35,20.10
2010,09,22,17,36,20.00
2010,09,22,17,37,19.90
2010,09,22,17,38,19.90
2010,09,22,17,39,19.90
2010,09,22,17,40,20.00
2010,09,22,17,41,20.00
2010,09,22,17,42,20.00
2010,09,22,17,43,20.00
2010,09,22,17,44,20.00
2010,09,22,17,45,19.90
2010,09,22,17,46,20.00
2010,09,22,17,47,20.00
2010,09,22,17,48,20.00
2010,09,22,17,49,19.90